Location: Asheville, NC
(35.6000°N, 82.5500°W)
Time: 20:18:50

AO-7 - Pass Details

Date: 12 March 2018
Orbit: 1440 x 1459 km, 101.7° (Epoch: 19 March)

Event Time Altitude Azimuth Distance (km) Brightness Sun altitude
Rises 07:07:23 0° 2° (N) 4,545 ? -8.5°
Reaches altitude 10° 07:11:11 10° 345° (NNW) 3,561 ? -7.7°
Maximum altitude 07:16:22 19° 306° (NW) 2,933 ? -6.7°
Drops below altitude 10° 07:21:33 10° 266° (W) 3,548 ? -5.6°
Enters shadow 07:23:45 - 255° (WSW) 4,080 ? -5.2°
